[[{"header":{"parameterUnit":"m.s-1","parameterCategory":1,"la1":30.2991,"la2":30.254,"lo1":-89.0895,"lo2":-89.0444,"dy":0.0017,"dx":0.0017,"nx":28,"ny":28,"refTime":"2024-12-23T09:00:00:Z","depth":0,"parameterNumber":2,"parameterNumberName":"U-component_of_WINDS"},"data":[0,0,0,0,0,0,0,0,0,0,0,0,0,0,0,0,0,0,0,0,0,0,0,0,0,0,0,0,0,0,0,0,0,0,0,0,0,0,0,0,0,0,0,0,0,0,0,0,0,0,0,0,0,0,0,0,0,0,-3.977,-3.9771,0,-3.98,-3.98,-3.98,-3.9657,-3.9653,-3.9649,-3.9645,-3.9677,-3.9682,-3.9687,0,0,0,0,0,0,0,0,0,0,0,0,0,-3.9592,-3.9596,-3.977,-3.9771,-3.9771,-3.98,-3.98,-3.9801,-3.9658,-3.9653,-3.9648,-3.9643,-3.9676,-3.9681,-3.9687,0,0,0,0,0,0,0,0,0,0,0,0,0,-3.965,-3.9597,-3.977,-3.9703,-3.9698,-3.98,-3.98,-3.9801,-3.9659,-3.9653,-3.9647,-3.9641,-3.9674,-3.9681,-3.9688,-3.9856,0,0,-3.9709,-3.9713,0,0,0,0,0,0,0,0,-3.9647,-3.9657,-3.9713,-3.9708,-3.9702,-3.9718,-3.9749,-3.9819,-3.9661,-3.9674,-3.9645,-3.9638,-3.9696,-3.9701,-3.972,-3.9858,-3.9859,-3.971,-3.9714,-3.9717,-3.9719,0,0,0,0,0,0,0,-3.9643,-3.9655,-3.9782,-3.9714,-3.9707,-3.9672,-3.9674,-3.9761,-3.972,-3.9672,-3.9662,-3.9667,-3.9692,-3.9714,-3.972,-3.9859,-3.971,-3.9716,-3.9721,-3.9723,-4.0135,-4.0142,0,0,0,0,0,0,-3.9648,-3.9652,-3.9781,-3.9783,-3.9659,-3.968,-3.9682,-3.972,-3.9718,-3.9712,-3.9673,-3.966,-3.9705,-3.9712,-3.9721,-3.9917,-3.9717,-3.9724,-3.9728,-4.0129,-4.0137,-4.0144,0,0,0,0,0,0,-3.9645,-3.9661,-3.978,-3.9715,-3.9727,-3.969,-3.9733,-3.9723,-3.9745,-3.9718,-3.971,-3.9703,-3.97,-3.9711,-3.9823,-3.9916,-3.9727,-3.9734,-4.0121,-4.0131,-4.0141,-4.0313,0,0,0,0,0,0,-3.964,-3.966,-3.9724,-3.9717,-3.9731,-3.9882,-3.9739,-3.9728,-3.9757,-3.9742,-3.9744,-3.9739,-3.9696,-3.9813,-3.983,-3.9923,-3.9739,-4.0112,-4.0126,-4.0137,-4.0299,-4.0327,-4.0352,0,0,0,0,0,-3.9634,-3.9772,-3.9728,-3.9744,-3.981,-3.9888,-3.9896,-3.9843,-3.9765,-3.9829,-3.9812,-3.9739,-3.9903,-3.9826,-3.9844,-3.994,-4.0106,-4.0122,-4.0136,-4.0287,-4.0322,-4.0351,0,0,0,0,0,0,-3.9791,-3.977,-3.9721,-3.986,-3.9877,-3.9864,-3.9942,-3.9882,-3.9922,-3.9906,-3.9839,-3.9841,-3.9965,-3.9963,-3.9878,-4.0102,-3.9991,-4.0011,-4.0099,-4.0133,-4.0159,-4.0157,-3.9745,0,0,0,0,0,-3.9842,-3.9907,-3.9884,-4.001,-4.0021,-3.9981,-4.0013,-3.997,-3.9985,-3.9992,-3.9983,-4.0,-4.0055,-4.0094,-4.0143,-4.0297,-4.0296,-4.0372,-4.0399,-4.0421,-4.0439,-4.0519,-4.0553,-4.0194,-4.0193,-4.0193,0,0,-3.9948,-3.9944,-3.9989,-4.0041,-4.0049,-4.0118,-3.9987,-4.0066,-4.0117,-4.0004,-4.0109,-4.0103,-4.0118,-4.0253,-4.0311,-4.0255,-4.0537,-4.044,-4.0458,-4.0464,-4.0539,-4.0573,-4.0603,-4.0204,-4.0202,-4.02,0,0,-4.0176,-4.018,-4.0284,-4.0295,-4.0308,-4.028,-4.0305,-4.0301,-4.0292,-4.0397,-4.0314,-4.0373,-4.047,-4.0484,-4.0504,-4.0736,-4.067,-4.0754,-4.0894,-4.0974,-4.1002,-4.1027,-4.111,-4.1141,-4.0771,-4.0772,-4.0772,0,-4.0307,-4.0407,-4.0346,-4.043,-4.0455,-4.0355,-4.0461,-4.0473,-4.0503,-4.0523,-4.0459,-4.0578,-4.0581,-4.0717,-4.0774,-4.0793,-4.082,-4.0754,-4.1003,-4.1027,-4.105,-4.1128,-4.116,-4.0782,-4.0781,-4.078,-4.0779,0,-4.0566,-4.0637,-4.072,-4.075,-4.0784,-4.0879,-4.0832,-4.0875,-4.0829,-4.0808,-4.0916,-4.0916,-4.0963,-4.0992,-4.0949,-4.1122,-4.1087,-4.1014,-4.0901,-4.1095,-4.1168,-4.1197,-4.0797,-4.0793,-4.079,-4.0787,0,0,-4.0896,-4.089,-4.0922,-4.0934,-4.094,-4.0994,-4.1083,-4.1129,-4.1167,-4.119,-4.1264,-4.1347,-4.128,-4.1303,-4.126,-4.133,-4.1514,-4.1248,-4.1248,-4.1298,-4.1705,-4.176,-4.1796,-4.147,-4.1475,-4.148,-4.1704,0,-4.112,-4.1273,-4.122,-4.1376,-4.144,-4.1345,-4.1423,-4.1436,-4.1418,-4.147,-4.1451,-4.1511,-4.1418,-4.1431,-4.1495,-4.1478,-4.1595,-4.1461,-4.1539,-4.1542,-4.1539,-4.1834,-4.1893,-4.2104,-4.1732,-4.1737,-4.174,0,-4.1402,-4.1436,-4.1598,-4.1592,-4.1617,-4.1689,-4.1726,-4.1777,-4.1789,-4.1771,-4.1796,-4.1738,-4.1826,-4.1712,-4.1832,-4.1742,-4.177,-4.1767,-4.1773,-4.178,-4.1654,-4.1849,-4.2171,-4.2203,-4.1784,-4.1781,-4.1777,0,-4.1627,-4.1713,-4.1821,-4.1834,-4.183,-4.1882,-4.1883,-4.1889,-4.192,-4.1952,-4.1971,-4.2014,-4.2038,-4.2073,-4.2028,-4.1949,-4.2154,-4.2037,-4.2143,-4.2144,-4.2191,-4.2189,-4.2523,-4.2209,-4.2208,-4.2208,-4.2207,0,-4.1884,-4.1987,-4.1922,-4.1988,-4.2101,-4.2039,-4.2152,-4.2142,-4.2148,-4.2211,-4.2131,-4.2192,-4.2128,-4.2184,-4.2149,-4.2254,-4.2265,-4.2253,-4.2243,-4.2261,-4.2263,-4.228,-4.2264,-4.2216,-4.2214,-4.2212,-4.2211,0,-4.2155,-4.2115,-4.2227,-4.2213,-4.2212,-4.2296,-4.2285,-4.2346,-4.2322,-4.2403,-4.2418,-4.2381,-4.2442,-4.2399,-4.2461,-4.2437,-4.2575,-4.2544,-4.2571,-4.2563,-4.2671,-4.2662,-4.3028,-4.3073,-4.273,-4.2733,-4.2736,0,-4.2322,-4.2398,-4.2393,-4.2429,-4.2435,-4.2495,-4.2525,-4.2466,-4.2501,-4.252,-4.258,-4.2633,-4.2673,-4.2774,-4.2753,-4.2799,-4.2769,-4.2894,-4.2775,-4.2791,-4.2771,-4.2768,-4.2775,-4.2919,-4.2923,-4.2926,-4.2929,0,-4.2622,-4.2598,-4.2645,-4.2685,-4.2723,-4.2752,-4.2774,-4.2808,-4.2749,-4.2793,-4.2853,-4.2884,-4.2945,-4.3,-4.3038,-4.3038,-4.2975,-4.2966,-4.2993,-4.3013,-4.3026,-4.3021,-4.2637,-4.2958,-4.2955,-4.2953,-4.2951,-4.295,-4.2846,-4.291,-4.2916,-4.297,-4.2981,-4.3003,-4.306,-4.3042,-4.3091,-4.3136,-4.3099,-4.3171,-4.318,-4.3224,-4.3233,-4.3289,-4.3238,-4.3277,-4.3287,-4.3298,-4.3314,-4.3016,-4.3296,-4.3295,-4.3294,-4.3293,-4.3293,0,-4.3143,-4.3141,-4.3192,-4.3225,-4.3268,-4.3202,-4.3223,-4.3264,-4.3329,-4.3342,-4.3382,-4.3452,-4.3504,-4.3486,-4.3532,-4.3581,-4.3553,-4.3595,-4.3591,-4.3593,-4.3356,-4.3329,-4.3617,-4.3617,-4.3617,-4.3617,-4.3617,-4.3617,-4.3302,-4.3406,-4.3383,-4.3492,-4.3489,-4.3559,-4.3577,-4.3597,-4.3608,-4.3689,-4.3731,-4.3719,-4.372,-4.3765,-4.381,-4.3803,-4.3824,-4.3878,-4.3861,-4.3641,-4.3609,-4.3579,-4.3552,-4.3883,-4.3883,-4.4092,-4.4094,-4.4096]},{"header":{"parameterUnit":"m.s-1","parameterCategory":1,"la1":30.2991,"la2":30.254,"lo1":-89.0895,"lo2":-89.0444,"dy":0.0017,"dx":0.0017,"nx":28,"ny":28,"refTime":"2024-12-23T09:00:00:Z","depth":0,"parameterNumber":3,"parameterNumberName":"V-component_of_WINDS"},"data":[0,0,0,0,0,0,0,0,0,0,0,0,0,0,0,0,0,0,0,0,0,0,0,0,0,0,0,0,0,0,0,0,0,0,0,0,0,0,0,0,0,0,0,0,0,0,0,0,0,0,0,0,0,0,0,0,0,0,-2.0334,-2.0335,0,-2.0353,-2.0353,-2.0353,-2.0335,-2.0334,-2.0333,-2.0333,-2.0351,-2.0352,-2.0353,0,0,0,0,0,0,0,0,0,0,0,0,0,-2.028,-2.0282,-2.0334,-2.0335,-2.0335,-2.0353,-2.0353,-2.0353,-2.0335,-2.0334,-2.0333,-2.0332,-2.035,-2.0352,-2.0353,0,0,0,0,0,0,0,0,0,0,0,0,0,-2.0302,-2.0282,-2.0334,-2.0328,-2.0327,-2.0353,-2.0353,-2.0354,-2.0335,-2.0334,-2.0333,-2.0332,-2.035,-2.0352,-2.0353,-2.0386,0,0,-2.0359,-2.0359,0,0,0,0,0,0,0,0,-2.0301,-2.0304,-2.0329,-2.0328,-2.0328,-2.0341,-2.0341,-2.0364,-2.0336,-2.0332,-2.0333,-2.0332,-2.0348,-2.035,-2.0356,-2.0386,-2.0387,-2.0359,-2.036,-2.036,-2.0361,0,0,0,0,0,0,0,-2.0299,-2.0303,-2.0342,-2.0329,-2.0329,-2.0323,-2.0325,-2.0345,-2.0346,-2.0332,-2.0331,-2.0334,-2.0348,-2.0354,-2.0356,-2.0388,-2.0359,-2.036,-2.0361,-2.0362,-2.0444,-2.0445,0,0,0,0,0,0,-2.0299,-2.0302,-2.0341,-2.0342,-2.0311,-2.0325,-2.0327,-2.0338,-2.0346,-2.0346,-2.0335,-2.0333,-2.0352,-2.0354,-2.0357,-2.0394,-2.036,-2.0362,-2.0363,-2.0443,-2.0444,-2.0445,0,0,0,0,0,0,-2.0298,-2.0302,-2.034,-2.0322,-2.0326,-2.0327,-2.0339,-2.0338,-2.0345,-2.0347,-2.0347,-2.0341,-2.0351,-2.0354,-2.0378,-2.0394,-2.0363,-2.0364,-2.0441,-2.0443,-2.0445,-2.0469,0,0,0,0,0,0,-2.0296,-2.0302,-2.0315,-2.0322,-2.0327,-2.0362,-2.034,-2.034,-2.0348,-2.0346,-2.0353,-2.0354,-2.035,-2.0376,-2.038,-2.0396,-2.0366,-2.044,-2.0442,-2.0444,-2.0467,-2.0471,-2.0475,0,0,0,0,0,-2.0294,-2.0321,-2.0316,-2.0321,-2.0344,-2.0363,-2.0366,-2.0362,-2.035,-2.0362,-2.0363,-2.0353,-2.0392,-2.0378,-2.0383,-2.04,-2.0439,-2.0441,-2.0444,-2.0465,-2.047,-2.0475,0,0,0,0,0,0,-2.0316,-2.0322,-2.0316,-2.0346,-2.0354,-2.036,-2.0376,-2.0368,-2.038,-2.0377,-2.0371,-2.0373,-2.0398,-2.0402,-2.0386,-2.043,-2.0413,-2.0417,-2.0427,-2.0433,-2.0437,-2.0435,-2.0367,0,0,0,0,0,-2.0325,-2.0341,-2.0345,-2.0371,-2.0375,-2.0375,-2.0384,-2.038,-2.0388,-2.0391,-2.0394,-2.0402,-2.0415,-2.0424,-2.0437,-2.0467,-2.0468,-2.0481,-2.0485,-2.0488,-2.0491,-2.0506,-2.0511,-2.0454,-2.0454,-2.0454,0,0,-2.0342,-2.0347,-2.0358,-2.0376,-2.0381,-2.0397,-2.0378,-2.0396,-2.0407,-2.0393,-2.0416,-2.0419,-2.0427,-2.0453,-2.0465,-2.0457,-2.0507,-2.0492,-2.0494,-2.0495,-2.0509,-2.0514,-2.0519,-2.0455,-2.0455,-2.0455,0,0,-2.0381,-2.0388,-2.0409,-2.0415,-2.0424,-2.0423,-2.0429,-2.0435,-2.0436,-2.0459,-2.0448,-2.0461,-2.0486,-2.0491,-2.0497,-2.0537,-2.0528,-2.0542,-2.0563,-2.0578,-2.0582,-2.0586,-2.0599,-2.0604,-2.0545,-2.0545,-2.0545,0,-2.0401,-2.0426,-2.0421,-2.044,-2.0447,-2.0435,-2.0456,-2.0462,-2.0475,-2.048,-2.047,-2.0499,-2.0504,-2.0531,-2.054,-2.0546,-2.0551,-2.054,-2.0582,-2.0586,-2.0589,-2.0601,-2.0606,-2.0546,-2.0546,-2.0546,-2.0546,0,-2.0449,-2.0466,-2.0482,-2.0494,-2.0504,-2.0523,-2.0521,-2.0531,-2.0526,-2.0526,-2.0548,-2.0554,-2.0566,-2.0573,-2.0568,-2.0599,-2.0593,-2.0583,-2.0565,-2.0596,-2.0608,-2.0612,-2.0548,-2.0548,-2.0547,-2.0547,0,0,-2.0503,-2.0512,-2.0517,-2.0522,-2.053,-2.0543,-2.0562,-2.0574,-2.0582,-2.0591,-2.0605,-2.0625,-2.0616,-2.0622,-2.0618,-2.0631,-2.0661,-2.0619,-2.0619,-2.0625,-2.0693,-2.0699,-2.0705,-2.0655,-2.0656,-2.0657,-2.0691,0,-2.0541,-2.0574,-2.057,-2.06,-2.0615,-2.0603,-2.0619,-2.0625,-2.0626,-2.0637,-2.0638,-2.0651,-2.0638,-2.0642,-2.0654,-2.0654,-2.0674,-2.0652,-2.0667,-2.0668,-2.0664,-2.0711,-2.0718,-2.0751,-2.0696,-2.0697,-2.0697,0,-2.059,-2.06,-2.0632,-2.0637,-2.0643,-2.0657,-2.0668,-2.068,-2.0686,-2.0685,-2.0693,-2.0686,-2.0703,-2.0686,-2.0709,-2.0695,-2.0701,-2.0702,-2.0703,-2.0703,-2.0683,-2.0711,-2.0761,-2.0766,-2.0704,-2.0704,-2.0703,0,-2.0624,-2.0646,-2.0667,-2.0672,-2.0678,-2.0689,-2.0692,-2.0697,-2.0704,-2.0713,-2.0718,-2.0729,-2.0735,-2.0743,-2.0739,-2.0727,-2.0763,-2.0745,-2.0761,-2.0761,-2.0768,-2.0768,-2.0819,-2.0775,-2.0775,-2.0774,-2.0774,0,-2.0667,-2.0686,-2.0682,-2.0696,-2.0717,-2.0712,-2.0732,-2.0734,-2.0739,-2.0751,-2.0742,-2.0754,-2.0749,-2.076,-2.0758,-2.0776,-2.0779,-2.0778,-2.0777,-2.0778,-2.0778,-2.0781,-2.0778,-2.0776,-2.0775,-2.0775,-2.0775,0,-2.0708,-2.0706,-2.0729,-2.0733,-2.0734,-2.0749,-2.0752,-2.0764,-2.0763,-2.0779,-2.0783,-2.0782,-2.0794,-2.0791,-2.0806,-2.0803,-2.0827,-2.0823,-2.0824,-2.0823,-2.0838,-2.0836,-2.0892,-2.0899,-2.0852,-2.0852,-2.0852,0,-2.0734,-2.0749,-2.0754,-2.0762,-2.0766,-2.0779,-2.0786,-2.0781,-2.0789,-2.0797,-2.0807,-2.0819,-2.0828,-2.0848,-2.0848,-2.0859,-2.0855,-2.0874,-2.0856,-2.0856,-2.0853,-2.0852,-2.0852,-2.0877,-2.0877,-2.0878,-2.0878,0,-2.0781,-2.0779,-2.079,-2.08,-2.0809,-2.0817,-2.0824,-2.0831,-2.0826,-2.0836,-2.0848,-2.0855,-2.0869,-2.088,-2.089,-2.0892,-2.0884,-2.0884,-2.0888,-2.0888,-2.0888,-2.0887,-2.0832,-2.0882,-2.0882,-2.0881,-2.0881,-2.0881,-2.0815,-2.0827,-2.0832,-2.0844,-2.0848,-2.0855,-2.0865,-2.0866,-2.0876,-2.0887,-2.0884,-2.0898,-2.0903,-2.0914,-2.0918,-2.0928,-2.0921,-2.0927,-2.0928,-2.093,-2.0931,-2.0887,-2.093,-2.093,-2.093,-2.093,-2.093,0,-2.086,-2.0862,-2.0873,-2.0883,-2.0892,-2.0884,-2.0891,-2.0899,-2.0911,-2.0917,-2.0925,-2.0939,-2.095,-2.0951,-2.096,-2.0969,-2.0965,-2.0971,-2.097,-2.097,-2.0938,-2.0932,-2.0974,-2.0974,-2.0974,-2.0974,-2.0974,-2.0974,-2.0884,-2.0903,-2.0901,-2.0922,-2.0924,-2.0938,-2.0942,-2.0948,-2.0952,-2.0968,-2.0976,-2.0977,-2.098,-2.099,-2.0999,-2.0999,-2.1002,-2.101,-2.1008,-2.0977,-2.0973,-2.0968,-2.0964,-2.1011,-2.1011,-2.1039,-2.104,-2.104]}]]